Regional Weather Roundup
Issued by NWS

Home | Current Version | Previous Version | Graphics & Text | Print | Product List | Glossary On
Versions: 1 2 3 4 5 6 7 8 9 10 11 12 13 14 15 16 17 18 19 20 21 22 23 24 25 26 27 28
000
ASUS45 KSLC 220510
RWRUT

UTAH REGIONAL WEATHER ROUNDUP
NATIONAL WEATHER SERVICE SALT LAKE CITY UT
1000 PM MST WED FEB 21 2018

UTZ001>011-023>025-220600-

NORTHERN UTAH

CITY           SKY/WX    TMP DP  RH WIND       PRES   REMARKS
BRIGHAM CITY   PTCLDY    19  13  75 CALM      30.08F
HILL AFB       PTCLDY    18   6  58 E14       30.04F WCI   4
LOGAN          PTCLDY    12   5  73 CALM      30.08F
OGDEN          PTCLDY    18   7  62 S8        30.05F WCI   8
SALT LAKE CITY MOCLDY    25  13  60 SE3       30.07F
TOOELE VALLEY  MOCLDY    16   9  73 S9        30.07F WCI   4
WENDOVER       CLEAR     20   8  60 W5        30.07S WCI  13
HEBER CITY       N/A      9   1  72 S3        30.01S
WEST JORDAN    MOCLDY    16   8  70 SW5       30.07F WCI   9

$$

UTZ011>015-024>027-220600-

CENTRAL/NORTHEAST UTAH

CITY           SKY/WX    TMP DP  RH WIND       PRES   REMARKS
PROVO AIRPORT  MOCLDY    16   9  74 S6        30.09S WCI   7
MOAB/CANYONLAN CLOUDY    33  18  53 E10       30.02S WCI  25
DELTA          MOCLDY    12   9  85 CALM      30.07S
PRICE          CLOUDY    22   4  46 N5        29.99S WCI  16
VERNAL         CLOUDY    20  11  68 CALM      30.05F

$$

UTZ013>016-019>022-027-220600-

SOUTHERN UTAH

CITY           SKY/WX    TMP DP  RH WIND       PRES   REMARKS
BRYCE CANYON   CLOUDY    17  14  88 SW5       29.98R WCI  10
CEDAR CITY     PTCLDY    22  17  81 SE3       30.01F
MILFORD        CLEAR     12   8  84 W7        30.04F WCI   1
ST GEORGE      CLOUDY    36  21  54 SE5       30.09S WCI  32
HANKSVILLE     MOCLDY    28   3  34 NW3       30.06R
BLANDING         N/A     29  22  75 CALM      30.07R

$$

REGIONAL REPORTS     COLORADO/ARIZONA

CITY           SKY/WX    TMP DP  RH WIND       PRES   REMARKS
CRAIG, CO      CLOUDY    16   9  74 CALM      30.03F
GRAND JUNCTION LGT SNOW  28  26  92 NW9       30.03S FOG     WCI  19
RIFLE, CO      CLOUDY    25  14  63 E3        30.00F
MONTROSE, CO   CLOUDY    28  17  63 N3        30.03R
CORTEZ, CO     CLOUDY    31  27  85 NW3       30.00R
COLORADO CITY  MOCLDY    28  18  64 NW3       30.07S
PAGE, AZ       CLOUDY    37  16  42 W3        30.03R
GRAND CANYON   PTCLDY    19  15  84 CALM      30.00S
KINGMAN, AZ    PTCLDY    36   5  27 CALM      30.08R
FLAGSTAFF, AZ  CLEAR     24   3  40 SW6       30.00R WCI  17

$$

REGIONAL REPORTS    NEVADA/IDAHO/WYOMING

CITY           SKY/WX    TMP DP  RH WIND       PRES   REMARKS
LAS VEGAS, NV  PTCLDY    44  14  29 SW6       30.09R
ELY, NY        MOCLDY    16  11  80 S7        29.99R WCI   6
ELKO, NV       CLEAR     15  11  83 CALM      30.00F
POCATELLO, ID  PTCLDY    22  10  60 SW6       30.05F WCI  14
BURLEY, ID     CLEAR     15   6  67 S7        30.02F WCI   5
FORT BRIDGER,    N/A      1  -3  87 CALM      30.03F
EVANSTON, WY   CLEAR      3  -4  72 E9        29.97F WCI -12
ROCK SPRINGS,  CLOUDY     6  -2  69 SE3       30.02F

$$




USA.gov is the U.S. government's official web portal to all federal, state and local government web resources and services.